Weather History for East Milton, MA

Change the Weather History Date:

Saturday, January 5, 2013

  Actual Average (KBOS) Record (KBOS)
Temperature  
Mean Temperature 34 °F 30 °F  
Max Temperature 39 °F 36 °F 63 °F (2007)
Min Temperature 28 °F 23 °F -4 °F (1981)
Degree Days  
Heating Degree Days 32 36  
Month to date heating degree days 176  
Since 1 July heating degree days 2170  
Cooling Degree Days 0 0  
Month to date cooling degree days 0  
Year to date cooling degree days 0  
Moisture  
Dew Point 17 °F    
Average Humidity 54    
Maximum Humidity 67    
Minimum Humidity 44    
Precipitation  
Precipitation 0.00 in 0.11 in 1.66 in (1873)
Month to date precipitation 0.55  
Year to date precipitation 0.55  
Sea Level Pressure  
Sea Level Pressure 30.12 in    
Wind  
Wind Speed 11 mph (West)    
Max Wind Speed 17 mph    
Max Gust Speed 30 mph    
T = Trace of Precipitation, MM = Missing Value Source: NWS Daily Summary

Daily Weather History Graph

Daily Weather History Graph

Search for Another Location

Airport:

Trip Planner

Search our weather history database for the weather conditions in past years. The results will help you decide how hot, cold, wet, or windy it might be!

Date:

Astronomy

Jan. 05, 2013 Rise Set
Actual Time 7:13 AM EST 4:27 PM EST
Civil Twilight 6:41 AM EST 4:58 PM EST
Nautical Twilight 6:06 AM EST 5:33 PM EST
Astronomical Twilight 5:32 AM EST 6:07 PM EST
Moon 12:12 AM EST (1/5) 11:18 AM EST (1/5)
Length of Visible Light 10h 16m
Length of Day
9h 13m
Last Quarter, 44% of the Moon is Illuminated
Jan 5
Last Quarter
Jan 11
New
Jan 18
First Quarter
Jan 26
Full
Feb 3
Last Quarter

Hourly Weather History & Observations

Time (EST) Temp. Windchill Dew Point Humidity Pressure Visibility Wind Dir Wind Speed Gust Speed Precip Events Conditions
12:54 AM 28.0 °F 17.5 °F 17.1 °F 63% 29.88 in - WSW 12.7 mph - N/A   Unknown
1:54 AM 28.0 °F 17.5 °F 17.1 °F 63% 29.90 in - WSW 12.7 mph 20.7 mph N/A   Unknown
2:54 AM 30.0 °F 21.1 °F 18.0 °F 61% 29.92 in - WSW 10.4 mph - N/A   Unknown
3:54 AM 30.0 °F 20.0 °F 18.0 °F 61% 29.93 in - SW 12.7 mph 18.4 mph N/A   Unknown
4:54 AM 28.9 °F 19.8 °F 18.0 °F 64% 29.96 in - SW 10.4 mph - N/A   Unknown
5:54 AM 28.0 °F 18.6 °F 18.0 °F 66% 29.99 in - WSW 10.4 mph - N/A   Unknown
6:54 AM 28.0 °F 17.5 °F 18.0 °F 66% 30.02 in - WSW 12.7 mph 19.6 mph N/A   Unknown
7:54 AM 28.9 °F 19.8 °F 19.0 °F 67% 30.06 in - WSW 10.4 mph 19.6 mph N/A   Unknown
8:54 AM 30.0 °F 20.0 °F 19.9 °F 66% 30.10 in - WSW 12.7 mph 18.4 mph N/A   Unknown
9:54 AM 35.1 °F 26.9 °F 19.9 °F 54% 30.14 in - WSW 11.5 mph - N/A   Unknown
10:54 AM 37.9 °F 30.0 °F 21.0 °F 51% 30.14 in - WNW 12.7 mph 25.3 mph N/A   Unknown
11:54 AM 37.9 °F 28.5 °F 19.9 °F 48% 30.14 in - WNW 17.3 mph 27.6 mph N/A   Unknown
12:54 PM 39.0 °F 30.3 °F 19.0 °F 45% 30.13 in - WNW 16.1 mph 29.9 mph N/A   Unknown
1:54 PM 39.0 °F 31.0 °F 21.0 °F 49% 30.14 in - NW 13.8 mph 24.2 mph N/A   Unknown
2:54 PM 37.9 °F 31.5 °F 19.0 °F 47% 30.17 in - NW 9.2 mph 19.6 mph N/A   Unknown
3:54 PM 37.0 °F 31.6 °F 17.1 °F 44% 30.19 in - NW 6.9 mph - N/A   Unknown
4:54 PM 33.1 °F 25.5 °F 16.0 °F 50% 30.23 in - WNW 9.2 mph - N/A   Unknown
5:54 PM 33.1 °F 26.9 °F 15.1 °F 48% 30.25 in - NW 6.9 mph - N/A   Unknown
6:54 PM 32.0 °F 25.6 °F 14.0 °F 48% 30.27 in - NW 6.9 mph - N/A   Unknown
7:54 PM 32.0 °F 25.6 °F 14.0 °F 48% 30.27 in - NNE 6.9 mph - N/A   Unknown
8:54 PM 32.0 °F - 12.9 °F 45% 30.26 in - Calm Calm - N/A   Unknown
9:54 PM 32.0 °F 26.4 °F 14.0 °F 48% 30.26 in - ESE 5.8 mph - N/A   Unknown
10:54 PM 30.9 °F 26.2 °F 14.0 °F 50% 30.25 in - SE 4.6 mph - N/A   Unknown
11:54 PM 30.9 °F 25.2 °F 15.1 °F 52% 30.23 in - ESE 5.8 mph - N/A   Unknown